P/2011 FR143 ( Lemmon )

Japanese version
Home page
Updated on April 18, 2012

---------------------------------------------------------------------

* Profile

Discovery Date March 29, 2011
Magnitude 19.4 mag
Discoverer R. E. Hill (Mount Lemmon)

* Pictures

* Orbital Elements

Epoch 2011 Mar. 20.0 TT = JDT 2455640.5
T 2011 Mar. 10.74431 TT                                 MPC
q   3.7355809            (2000.0)            P               Q
n   0.05522767     Peri.  349.94149     -0.99856263     +0.00952153
a   6.8291225      Node   191.02265     -0.00237615     -0.99099076
e   0.4529925      Incl.   16.01362     -0.05354457     -0.13359141
P  17.8
From 52 observations 2011 Mar. 5-2012 Apr. 11, mean residual 0".4.

* Magnitudes Graph

        m1 = 11.0 + 5 log d + 10.0 log r

---------------------------------------------------------------------

The orbital elements are published on M.P.E.C. 2012-G36.
The magnitudes graphs are made with Comet for Windows.

---------------------------------------------------------------------

Copyright(C) Seiichi Yoshida (comet@aerith.net). All rights reserved.